Weather History for K9V9 - December, 2012

Change the Weather History Date:

Thursday, December 6, 2012

  Actual Average Record
Temperature  
Mean Temperature 40 °F -  
Max Temperature 46 °F 35 °F 46 °F (2012)
Min Temperature 30 °F 17 °F -14 °F (2013)
Degree Days  
Heating Degree Days 26    
Moisture  
Dew Point 23 °F    
Average Humidity 49    
Maximum Humidity 67    
Minimum Humidity 39    
Precipitation  
Precipitation 0.00 in - - ()
Sea Level Pressure  
Sea Level Pressure 29.98 in    
Wind  
Wind Speed 13 mph (NW)    
Max Wind Speed 20 mph    
Max Gust Speed 28 mph    
Averages and records for this station are not official NWS values.
T = Trace of Precipitation, MM = Missing Value Source: NWS Daily Summary

Daily Weather History Graph

Daily Weather History Graph

Search for Another Location

Airport or City:

Trip Planner

Search our weather history database for the weather conditions in past years. The results will help you decide how hot, cold, wet, or windy it might be!

Date:

Astronomy

Dec. 06, 2012 Rise Set
Actual Time 7:57 AM CST 5:00 PM CST
Civil Twilight 7:24 AM CST 5:32 PM CST
Nautical Twilight 6:48 AM CST 6:08 PM CST
Astronomical Twilight 6:13 AM CST 6:43 PM CST
Moon 12:01 AM CST (12/6) 12:39 PM CST (12/6)
Length of Visible Light 10h 08m
Length of Day
9h 03m
Waning Gibbous, 49% of the Moon is Illuminated
Dec 6
Waning Gibbous
Dec 13
New
Dec 19
First Quarter
Dec 28
Full
Jan 4
Last Quarter

Hourly Weather History & Observations

Time (CST) Temp. Windchill Dew Point Humidity Pressure Visibility Wind Dir Wind Speed Gust Speed Precip Events Conditions
12:52 AM 45.0 °F 38.5 °F 28.0 °F 52% 29.79 in - WNW 13.8 mph - N/A   Unknown
1:52 AM 45.0 °F 37.4 °F 33.1 °F 63% 29.83 in - NW 18.4 mph 27.6 mph N/A   Unknown
2:52 AM 46.0 °F 39.3 °F 28.9 °F 51% 29.87 in - NNW 16.1 mph - N/A   Unknown
3:52 AM 46.9 °F - 24.1 °F 41% 29.89 in - NNW 13.8 mph 23.0 mph N/A   Unknown
4:52 AM 46.0 °F 41.0 °F 23.0 °F 40% 29.93 in - NW 10.4 mph - N/A   Unknown
5:52 AM 46.0 °F 39.6 °F 21.9 °F 39% 29.95 in - NNW 15.0 mph - N/A   Unknown
6:52 AM 44.1 °F 35.9 °F 21.9 °F 42% 29.95 in - NW 19.6 mph 25.3 mph N/A   Unknown
7:52 AM 42.1 °F 33.9 °F 19.9 °F 41% 29.99 in - NW 17.3 mph - N/A   Unknown
8:52 AM 42.1 °F 35.2 °F 19.0 °F 40% 30.01 in - NW 12.7 mph - N/A   Unknown
9:52 AM 41.0 °F 32.5 °F 19.0 °F 41% 30.02 in - NNW 17.3 mph 26.5 mph N/A   Unknown
10:52 AM 41.0 °F 31.9 °F 21.0 °F 45% 30.04 in - NW 19.6 mph 26.5 mph N/A   Unknown
11:52 AM 41.0 °F 32.8 °F 21.0 °F 45% 30.04 in - NW 16.1 mph - N/A   Unknown
12:52 PM 42.1 °F 34.2 °F 21.9 °F 45% 30.04 in - WNW 16.1 mph - N/A   Unknown
1:52 PM 42.1 °F 34.5 °F 21.9 °F 45% 30.03 in - NW 15.0 mph - N/A   Unknown
2:52 PM 42.1 °F 34.5 °F 21.9 °F 45% 30.02 in - NW 15.0 mph - N/A   Unknown
3:52 PM 42.1 °F 37.1 °F 23.0 °F 47% 30.01 in - NW 8.1 mph - N/A   Unknown
4:52 PM 39.9 °F 35.8 °F 23.0 °F 51% 30.01 in - WNW 5.8 mph - N/A   Unknown
5:52 PM 39.9 °F - 23.0 °F 51% 30.02 in - Calm Calm - N/A   Unknown
6:52 PM 39.0 °F 35.7 °F 23.0 °F 53% 30.03 in - North 4.6 mph - N/A   Unknown
7:52 PM 37.0 °F 34.5 °F 21.9 °F 54% 30.04 in - NNW 3.5 mph - N/A   Unknown
8:52 PM 34.0 °F 29.8 °F 21.0 °F 59% 30.04 in - NW 4.6 mph - N/A   Unknown
9:52 PM 33.1 °F - 21.0 °F 61% 30.03 in - Calm Calm - N/A   Unknown
10:52 PM 34.0 °F - 21.9 °F 61% 30.03 in - Calm Calm - N/A   Unknown
11:52 PM 30.9 °F 26.2 °F 21.0 °F 67% 30.03 in - East 4.6 mph - N/A   Unknown